Overview Statistics Trail Chart Weather Telemetry Raw packets
 

This is the latest recevied weather packets stored in our database for station/object KI5NXU. If no packets are shown the sender has not sent any weather packets the latest 10 day(s).

<< 4 5 6 7 8 9 10 >>
Time Temp. Humidity Pressure Rain* Wind** Luminosity Snow
1788366458 33.89° C 52% 1015.6 hPa 0 mm - 690 W/m² -
1788366153 35° C 52% 1015.7 hPa 0 mm - 695 W/m² -
1788365848 33.89° C 52% 1015.7 hPa 0 mm - 715 W/m² -
1788365543 35° C 50% 1015.9 hPa 0 mm - 690 W/m² -
1788365240 35.56° C 49% 1015.8 hPa 0 mm - 684 W/m² -
1788364934 35° C 48% 1015.6 hPa 0 mm - 675 W/m² -
1788364652 35° C 50% 1015.9 hPa 0 mm - 655 W/m² -
1788364331 35° C 49% 1015.7 hPa 0 mm - 633 W/m² -
1788364027 33.89° C 53% 1015.8 hPa 0 mm - 615 W/m² -
1788363726 33.89° C 53% 1015.8 hPa 0 mm - 603 W/m² -
1788363420 34.44° C 52% 1015.7 hPa 0 mm - 561 W/m² -
1788363115 34.44° C 50% 1015.8 hPa 0 mm - 557 W/m² -
1788362811 33.89° C 52% 1015.9 hPa 0 mm - 550 W/m² -
1788362506 33.33° C 53% 1015.7 hPa 0 mm - 215 W/m² -
1788362202 33.89° C 53% 1015.6 hPa 0 mm - 490 W/m² -
1788361896 32.78° C 54% 1015.9 hPa 0 mm - 487 W/m² -
1788361592 33.33° C 55% 1015.8 hPa 0 mm - 456 W/m² -
1788361287 32.22° C 56% 1015.8 hPa 0 mm - 431 W/m² -
1788360981 31.67° C 58% 1015.6 hPa 0 mm - 386 W/m² -
1788360676 32.22° C 56% 1015.8 hPa 0 mm - 360 W/m² -
1788360372 31.67° C 58% 1015.8 hPa 0 mm - 330 W/m² -
1788360072 31.67° C 58% 1015.9 hPa 0 mm - 306 W/m² -
1788359767 31.11° C 60% 1015.7 hPa 0 mm - 290 W/m² -
1788359462 30.56° C 60% 1015.8 hPa 0 mm - 272 W/m² -
1788359158 30.56° C 61% 1015.8 hPa 0 mm - 260 W/m² -

* Rain latest hour (hover to see other rain measurements)
** Current wind speed in m/s (hover to see current wind gust speed)